| time (UTC) | temp C | wind direction | speed KPH | gust KPH | rain 1hr cm | rain 24hr cm | rain mn cm | humidity % | barometer mb |
| 20260504175605 | 22 | 201 | 4.8 | 12.9 | 0.00 | 0.00 | 0.00 | 34 | 1010.4 |
| 20260504174606 | 22 | 191 | 8.0 | 20.9 | 0.00 | 0.00 | 0.00 | 37 | 1010.6 |
| 20260504174106 | 21 | 192 | 6.4 | 22.5 | 0.00 | 0.00 | 0.00 | 38 | 1010.5 |
| 20260504173605 | 21 | 182 | 4.8 | 27.4 | 0.00 | 0.00 | 0.00 | 37 | 1010.6 |
| 20260504173106 | 21 | 181 | 6.4 | 22.5 | 0.00 | 0.00 | 0.00 | 38 | 1010.8 |
| 20260504172606 | 21 | 183 | 8.0 | 20.9 | 0.00 | 0.00 | 0.00 | 37 | 1010.8 |
| 20260504172105 | 21 | 171 | 6.4 | 19.3 | 0.00 | 0.00 | 0.00 | 37 | 1010.8 |
| 20260504171607 | 21 | 192 | 6.4 | 16.1 | 0.00 | 0.00 | 0.00 | 38 | 1010.7 |
| 20260504171105 | 21 | 190 | 4.8 | 19.3 | 0.00 | 0.00 | 0.00 | 37 | 1010.9 |
| 20260504170605 | 22 | 189 | 8.0 | 33.8 | 0.00 | 0.00 | 0.00 | 36 | 1010.9 |
| 20260504160106 | 21 | 210 | 8.0 | 19.3 | 0.00 | 0.00 | 0.00 | 38 | 1011.5 |
| 20260504151106 | 20 | 213 | 4.8 | 25.7 | 0.00 | 0.00 | 0.00 | 41 | 1012.2 |
| 20260504150606 | 20 | 215 | 6.4 | 27.4 | 0.00 | 0.00 | 0.00 | 36 | 1012.3 |
| 20260504141106 | 18 | 234 | 8.0 | 19.3 | 0.00 | 0.00 | 0.00 | 39 | 1012.6 |
| 20260504140105 | 18 | 166 | 3.2 | 11.3 | 0.00 | 0.00 | 0.00 | 40 | 1012.6 |
| 20260504130605 | 16 | 165 | 3.2 | 14.5 | 0.00 | 0.00 | 0.00 | 48 | 1013.2 |
| 20260504120106 | 8 | 165 | 1.6 | 4.8 | 0.00 | 0.00 | 0.00 | 79 | 1013.6 |
| 20260504110605 | 4 | 214 | 0.0 | 0.0 | 0.00 | 0.00 | 0.00 | 90 | 1013.6 |
| 20260504110106 | 4 | 214 | 0.0 | 1.6 | 0.00 | 0.00 | 0.00 | 90 | 1013.6 |
| 20260504100106 | 3 | 214 | 0.0 | 4.8 | 0.00 | 0.00 | 0.00 | 88 | 1013.2 |
| 20260504090105 | 3 | 214 | 0.0 | 0.0 | 0.00 | 0.00 | 0.00 | 87 | 1013.0 |
| 20260504081105 | 3 | 232 | 0.0 | 1.6 | 0.00 | 0.00 | 0.00 | 88 | 1012.6 |
| 20260504080605 | 3 | 232 | 0.0 | 1.6 | 0.00 | 0.00 | 0.00 | 89 | 1012.6 |
| 20260504070106 | 2 | 232 | 0.0 | 0.0 | 0.00 | 0.00 | 0.00 | 87 | 1012.4 |
| 20260504060105 | 3 | 232 | 0.0 | 0.0 | 0.00 | 0.00 | 0.00 | 84 | 1012.3 |
| 20260504050605 | 3 | 232 | 0.0 | 0.0 | 0.00 | 0.00 | 0.00 | 83 | 1012.3 |
| 20260504045605 | 3 | 232 | 0.0 | 0.0 | 0.00 | 0.00 | 0.00 | 82 | 1012.3 |
| 20260504045105 | 3 | 232 | 0.0 | 0.0 | 0.00 | 0.00 | 0.00 | 81 | 1012.3 |
| 20260504044605 | 3 | 232 | 0.0 | 0.0 | 0.00 | 0.00 | 0.00 | 81 | 1012.3 |
| 20260504044105 | 3 | 232 | 0.0 | 0.0 | 0.00 | 0.00 | 0.00 | 81 | 1012.3 |
| 20260504043605 | 3 | 232 | 0.0 | 0.0 | 0.00 | 0.00 | 0.00 | 81 | 1012.3 |
| 20260504043105 | 4 | 232 | 0.0 | 0.0 | 0.00 | 0.00 | 0.00 | 81 | 1012.3 |
| 20260504042606 | 4 | 232 | 0.0 | 0.0 | 0.00 | 0.00 | 0.00 | 81 | 1012.3 |
| 20260504042105 | 4 | 232 | 0.0 | 0.0 | 0.00 | 0.00 | 0.00 | 81 | 1012.3 |
| 20260504041105 | 4 | 232 | 0.0 | 0.0 | 0.00 | 0.00 | 0.00 | 80 | 1012.2 |
| 20260504040605 | 4 | 232 | 0.0 | 3.2 | 0.00 | 0.00 | 0.00 | 80 | 1012.2 |
| 20260504040105 | 4 | 232 | 0.0 | 3.2 | 0.00 | 0.00 | 0.00 | 80 | 1012.2 |
| 20260504035605 | 4 | 232 | 0.0 | 3.2 | 0.00 | 0.00 | 0.00 | 80 | 1012.2 |
| 20260504035105 | 5 | 232 | 0.0 | 0.0 | 0.00 | 0.00 | 0.00 | 80 | 1012.2 |
| 20260504034605 | 5 | 232 | 0.0 | 0.0 | 0.00 | 0.00 | 0.00 | 80 | 1012.1 |
| 20260504034104 | 5 | 232 | 0.0 | 0.0 | 0.00 | 0.00 | 0.00 | 79 | 1012.1 |
| 20260504033605 | 5 | 232 | 0.0 | 0.0 | 0.00 | 0.00 | 0.00 | 79 | 1012.1 |
| 20260504033105 | 5 | 232 | 0.0 | 1.6 | 0.00 | 0.00 | 0.00 | 79 | 1012.1 |
| 20260504032605 | 5 | 232 | 0.0 | 1.6 | 0.00 | 0.00 | 0.00 | 78 | 1012.0 |
| 20260504032105 | 5 | 232 | 0.0 | 1.6 | 0.00 | 0.00 | 0.00 | 77 | 1012.0 |
| 20260504031604 | 5 | 232 | 1.6 | 1.6 | 0.00 | 0.00 | 0.00 | 77 | 1012.1 |
| 20260504031105 | 5 | 232 | 1.6 | 3.2 | 0.00 | 0.00 | 0.00 | 76 | 1012.1 |
| 20260504030605 | 5 | 232 | 0.0 | 1.6 | 0.00 | 0.00 | 0.00 | 76 | 1012.1 |
| 20260504030105 | 5 | 232 | 0.0 | 1.6 | 0.00 | 0.00 | 0.00 | 77 | 1012.0 |
| 20260504025605 | 5 | 232 | 1.6 | 3.2 | 0.00 | 0.00 | 0.00 | 76 | 1011.9 |
| 20260504025107 | 5 | 232 | 1.6 | 3.2 | 0.00 | 0.00 | 0.00 | 75 | 1011.9 |
| 20260504024604 | 5 | 232 | 1.6 | 3.2 | 0.00 | 0.00 | 0.00 | 74 | 1011.9 |
| 20260504024105 | 5 | 232 | 1.6 | 3.2 | 0.00 | 0.00 | 0.00 | 74 | 1012.0 |
| 20260504023104 | 6 | 232 | 1.6 | 3.2 | 0.00 | 0.00 | 0.00 | 72 | 1012.0 |
| 20260504022605 | 6 | 232 | 1.6 | 3.2 | 0.00 | 0.00 | 0.00 | 72 | 1012.0 |
| 20260504022105 | 6 | 232 | 1.6 | 3.2 | 0.00 | 0.00 | 0.00 | 71 | 1012.0 |
| 20260504021105 | 6 | 232 | 1.6 | 1.6 | 0.00 | 0.00 | 0.00 | 69 | 1011.9 |
| 20260504020605 | 6 | 232 | 0.0 | 1.6 | 0.00 | 0.00 | 0.00 | 67 | 1011.9 |
| 20260504015605 | 7 | 232 | 0.0 | 1.6 | 0.00 | 0.00 | 0.00 | 66 | 1011.9 |
| 20260504014604 | 7 | 232 | 0.0 | 1.6 | 0.00 | 0.00 | 0.00 | 65 | 1011.8 |
| 20260504014105 | 7 | 232 | 0.0 | 1.6 | 0.00 | 0.00 | 0.00 | 64 | 1011.9 |
| 20260504013605 | 7 | 232 | 0.0 | 0.0 | 0.00 | 0.00 | 0.00 | 63 | 1011.8 |
| 20260504012105 | 7 | 232 | 0.0 | 0.0 | 0.00 | 0.00 | 0.00 | 62 | 1011.6 |
| 20260504011604 | 7 | 232 | 0.0 | 1.6 | 0.00 | 0.00 | 0.00 | 61 | 1011.5 |
| 20260504011105 | 7 | 232 | 0.0 | 1.6 | 0.00 | 0.00 | 0.00 | 62 | 1011.4 |
| 20260504010605 | 8 | 232 | 0.0 | 0.0 | 0.00 | 0.00 | 0.00 | 62 | 1011.3 |
| 20260504010105 | 8 | 232 | 0.0 | 1.6 | 0.00 | 0.00 | 0.00 | 61 | 1011.2 |
| 20260504005605 | 8 | 232 | 0.0 | 0.0 | 0.00 | 0.00 | 0.00 | 60 | 1011.2 |
| 20260504005105 | 8 | 232 | 0.0 | 0.0 | 0.00 | 0.00 | 0.00 | 59 | 1011.1 |
| 20260504004605 | 8 | 232 | 0.0 | 0.0 | 0.00 | 0.00 | 0.00 | 59 | 1011.0 |
| 20260504004104 | 8 | 232 | 0.0 | 0.0 | 0.00 | 0.00 | 0.00 | 58 | 1011.0 |
| 20260504003605 | 8 | 232 | 0.0 | 1.6 | 0.00 | 0.00 | 0.00 | 57 | 1010.9 |
| 20260504003105 | 9 | 232 | 0.0 | 0.0 | 0.00 | 0.00 | 0.00 | 55 | 1010.9 |
| 20260504002605 | 9 | 232 | 0.0 | 1.6 | 0.00 | 0.00 | 0.00 | 54 | 1010.8 |
| 20260504002104 | 9 | 232 | 0.0 | 1.6 | 0.00 | 0.00 | 0.00 | 52 | 1010.7 |
| 20260504001605 | 10 | 232 | 0.0 | 0.0 | 0.00 | 0.00 | 0.00 | 52 | 1010.7 |
| 20260504001104 | 10 | 232 | 0.0 | 0.0 | 0.00 | 0.00 | 0.00 | 51 | 1010.6 |
| 20260504000604 | 10 | 232 | 0.0 | 0.0 | 0.00 | 0.00 | 0.00 | 50 | 1010.5 |
| 20260504000104 | 10 | 232 | 0.0 | 0.0 | 0.00 | 0.00 | 0.00 | 48 | 1010.4 |
| 20260503235604 | 10 | 232 | 0.0 | 1.6 | 0.00 | 0.00 | 0.00 | 48 | 1010.3 |
| 20260503235105 | 11 | 232 | 0.0 | 1.6 | 0.00 | 0.00 | 0.00 | 47 | 1010.3 |
| 20260503234605 | 11 | 232 | 0.0 | 0.0 | 0.00 | 0.00 | 0.00 | 44 | 1010.2 |
| 20260503234104 | 11 | 232 | 0.0 | 1.6 | 0.00 | 0.00 | 0.00 | 44 | 1010.1 |
| 20260503233604 | 11 | 232 | 0.0 | 1.6 | 0.00 | 0.00 | 0.00 | 43 | 1010.1 |
| 20260503233105 | 11 | 232 | 0.0 | 1.6 | 0.00 | 0.00 | 0.00 | 42 | 1010.1 |
| 20260503232604 | 11 | 232 | 1.6 | 3.2 | 0.00 | 0.00 | 0.00 | 41 | 1010.1 |
| 20260503232105 | 12 | 232 | 0.0 | 1.6 | 0.00 | 0.00 | 0.00 | 40 | 1010.0 |
| 20260503231104 | 12 | 143 | 0.0 | 3.2 | 0.00 | 0.00 | 0.00 | 39 | 1010.0 |
| 20260503230605 | 12 | 143 | 0.0 | 1.6 | 0.00 | 0.00 | 0.00 | 38 | 1009.9 |
| 20260503230105 | 12 | 143 | 1.6 | 4.8 | 0.00 | 0.00 | 0.00 | 37 | 1009.9 |
| 20260503225605 | 12 | 138 | 1.6 | 8.0 | 0.00 | 0.00 | 0.00 | 39 | 1009.9 |
| 20260503225104 | 12 | 221 | 1.6 | 4.8 | 0.00 | 0.00 | 0.00 | 39 | 1009.8 |
| 20260503224605 | 12 | 227 | 1.6 | 4.8 | 0.00 | 0.00 | 0.00 | 36 | 1009.8 |
| 20260503224104 | 12 | 312 | 1.6 | 9.7 | 0.00 | 0.00 | 0.00 | 35 | 1009.8 |
| 20260503223604 | 12 | 148 | 1.6 | 8.0 | 0.00 | 0.00 | 0.00 | 36 | 1009.8 |
| 20260503222604 | 12 | 153 | 1.6 | 9.7 | 0.00 | 0.00 | 0.00 | 37 | 1009.7 |
| 20260503222104 | 13 | 327 | 0.0 | 4.8 | 0.00 | 0.00 | 0.00 | 37 | 1009.7 |
| 20260503221604 | 13 | 347 | 3.2 | 14.5 | 0.00 | 0.00 | 0.00 | 34 | 1009.6 |
| 20260503221104 | 13 | 224 | 6.4 | 14.5 | 0.00 | 0.00 | 0.00 | 35 | 1009.6 |
| 20260503220605 | 13 | 254 | 4.8 | 8.0 | 0.00 | 0.00 | 0.00 | 36 | 1009.7 |
| 20260503220105 | 13 | 153 | 4.8 | 12.9 | 0.00 | 0.00 | 0.00 | 34 | 1009.8 |
| 20260503215605 | 13 | 217 | 3.2 | 8.0 | 0.00 | 0.00 | 0.00 | 38 | 1009.7 |
| 20260503215105 | 13 | 217 | 4.8 | 12.9 | 0.00 | 0.00 | 0.00 | 35 | 1009.7 |
| 20260503214605 | 13 | 219 | 4.8 | 14.5 | 0.00 | 0.00 | 0.00 | 35 | 1009.7 |
| 20260503214104 | 13 | 149 | 4.8 | 16.1 | 0.00 | 0.00 | 0.00 | 37 | 1009.8 |
| 20260503213604 | 13 | 213 | 9.7 | 27.4 | 0.00 | 0.00 | 0.00 | 35 | 1009.7 |
| 20260503213104 | 13 | 222 | 8.0 | 19.3 | 0.00 | 0.00 | 0.00 | 34 | 1009.6 |
| 20260503212104 | 14 | 164 | 4.8 | 19.3 | 0.00 | 0.00 | 0.00 | 33 | 1009.7 |
| 20260503211604 | 14 | 228 | 6.4 | 16.1 | 0.00 | 0.00 | 0.00 | 33 | 1009.7 |
| 20260503211104 | 15 | 168 | 9.7 | 25.7 | 0.00 | 0.00 | 0.00 | 32 | 1009.8 |
| 20260503210604 | 15 | 212 | 8.0 | 19.3 | 0.00 | 0.00 | 0.00 | 35 | 1009.6 |
| 20260503210105 | 15 | 180 | 4.8 | 12.9 | 0.00 | 0.00 | 0.00 | 33 | 1009.7 |
| 20260503205104 | 14 | 210 | 3.2 | 19.3 | 0.00 | 0.00 | 0.00 | 38 | 1009.5 |
| 20260503204604 | 13 | 185 | 8.0 | 16.1 | 0.00 | 0.00 | 0.00 | 38 | 1009.5 |
| 20260503204104 | 13 | 204 | 8.0 | 19.3 | 0.00 | 0.00 | 0.00 | 36 | 1009.6 |
| 20260503203604 | 13 | 192 | 3.2 | 14.5 | 0.00 | 0.00 | 0.00 | 38 | 1009.5 |
| 20260503203104 | 13 | 143 | 6.4 | 16.1 | 0.00 | 0.00 | 0.00 | 35 | 1009.6 |
| 20260503202104 | 13 | 219 | 8.0 | 19.3 | 0.00 | 0.00 | 0.00 | 35 | 1009.6 |
| 20260503201605 | 13 | 181 | 8.0 | 20.9 | 0.00 | 0.00 | 0.00 | 36 | 1009.6 |
| 20260503200104 | 14 | 217 | 8.0 | 19.3 | 0.00 | 0.00 | 0.00 | 35 | 1009.6 |
| 20260503195604 | 14 | 218 | 9.7 | 27.4 | 0.00 | 0.00 | 0.00 | 38 | 1009.7 |
| 20260503195104 | 14 | 224 | 6.4 | 14.5 | 0.00 | 0.00 | 0.00 | 41 | 1009.6 |
| 20260503194604 | 13 | 166 | 3.2 | 11.3 | 0.00 | 0.00 | 0.00 | 38 | 1009.5 |
| 20260503194104 | 13 | 157 | 4.8 | 14.5 | 0.00 | 0.00 | 0.00 | 36 | 1009.6 |
| 20260503193604 | 13 | 193 | 1.6 | 16.1 | 0.00 | 0.00 | 0.00 | 39 | 1009.7 |
| 20260503193104 | 13 | 231 | 8.0 | 16.1 | 0.00 | 0.00 | 0.00 | 36 | 1009.6 |
| 20260503192605 | 13 | 231 | 6.4 | 29.0 | 0.00 | 0.00 | 0.00 | 37 | 1009.7 |
| 20260503192104 | 14 | 174 | 4.8 | 12.9 | 0.00 | 0.00 | 0.00 | 36 | 1009.6 |
| 20260503191604 | 14 | 189 | 4.8 | 19.3 | 0.00 | 0.00 | 0.00 | 39 | 1009.4 |
| 20260503191105 | 13 | 228 | 4.8 | 19.3 | 0.00 | 0.00 | 0.00 | 37 | 1009.5 |
| 20260503190604 | 13 | 200 | 6.4 | 20.9 | 0.00 | 0.00 | 0.00 | 38 | 1009.5 |
| 20260503185605 | 12 | 159 | 8.0 | 22.5 | 0.00 | 0.00 | 0.00 | 36 | 1009.5 |
| 20260503184604 | 12 | 188 | 8.0 | 25.7 | 0.00 | 0.00 | 0.00 | 40 | 1009.5 |
| 20260503184104 | 12 | 147 | 8.0 | 22.5 | 0.00 | 0.00 | 0.00 | 37 | 1009.6 |
| 20260503183605 | 12 | 200 | 9.7 | 25.7 | 0.00 | 0.00 | 0.00 | 37 | 1009.7 |
| 20260503183104 | 12 | 176 | 4.8 | 25.7 | 0.00 | 0.00 | 0.00 | 39 | 1009.7 |
| 20260503182605 | 12 | 239 | 4.8 | 20.9 | 0.00 | 0.00 | 0.00 | 36 | 1009.5 |
| 20260503182105 | 13 | 185 | 9.7 | 25.7 | 0.00 | 0.00 | 0.00 | 36 | 1009.5 |
| 20260503181605 | 13 | 206 | 4.8 | 12.9 | 0.00 | 0.00 | 0.00 | 40 | 1009.5 |
| 20260503181104 | 12 | 254 | 4.8 | 20.9 | 0.00 | 0.00 | 0.00 | 38 | 1009.3 |
| 20260503180605 | 12 | 144 | 6.4 | 14.5 | 0.00 | 0.00 | 0.00 | 42 | 1009.6 |
| 20260503180105 | 12 | 245 | 4.8 | 19.3 | 0.00 | 0.00 | 0.00 | 40 | 1009.5 |